Weather reports worldwide

Advertisment
Shawbury, United Kingdom (3414): temperature & dewpoint: 16.02.2019 01:00:00 - 22.02.2019 01:00:00 (GMT)Shawbury, United Kingdom (3414): temperature -20cm & temperature -100cm: 16.02.2019 01:00:00 - 22.02.2019 01:00:00 (GMT)Shawbury, United Kingdom (3414): wind speed & gusts: 16.02.2019 01:00:00 - 22.02.2019 01:00:00 (GMT)Shawbury, United Kingdom (3414): wind direction: 16.02.2019 01:00:00 - 22.02.2019 01:00:00 (GMT)Shawbury, United Kingdom (3414): reduced air pressure: 16.02.2019 01:00:00 - 22.02.2019 01:00:00 (GMT)Shawbury, United Kingdom (3414): visibility: 16.02.2019 01:00:00 - 22.02.2019 01:00:00 (GMT)Shawbury, United Kingdom (3414): sunshine duration: 16.02.2019 01:00:00 - 22.02.2019 01:00:00 (GMT)Shawbury, United Kingdom (3414): precipitation: 16.02.2019 01:00:00 - 22.02.2019 01:00:00 (GMT)
Date & Time tt [°C] td [°C] tt -20cm [°C] tt -100cm [°C] ff [km/h] ff [kn] fx [km/h] fx [kn] dd ppp [hPa] vv [km] sd [min] rr [mm]
22.02.2019 01:00:00 7,3 6,5 - - 5 3 - - ESE 1030,6 10 0 0,0
22.02.2019 00:00:00 7,9 6,8 - - 11 6 - - SE 1030,0 11 - 0,0
21.02.2019 23:00:00 8,2 6,8 - - 15 8 - - SSE 1029,6 11 0 0,0
21.02.2019 22:00:00 9,5 7,7 - - 16 9 - - SSE 1029,1 10 0 0,0
21.02.2019 21:00:00 9,2 7,0 - - 8 4 - - SE 1028,6 10 0 0,0
21.02.2019 20:00:00 10,0 7,1 - - 13 7 - - S 1027,9 18 0 0,0
21.02.2019 19:00:00 11,4 7,5 - - 4 2 - - S 1027,1 21 0 0,0
21.02.2019 18:00:00 11,2 6,9 - - 5 3 - - SW 1026,5 26 12 0,0
21.02.2019 17:00:00 12,8 7,8 - - 13 7 - - SW 1025,6 30 42 0,0
21.02.2019 16:00:00 14,2 8,9 - - 13 7 - - SW 1025,2 30 60 0,0
21.02.2019 15:00:00 14,8 8,9 - - 16 9 - - WSW 1024,9 35 60 0,0
21.02.2019 14:00:00 14,2 8,7 - - 18 10 - - WSW 1024,8 35 60 0,0
21.02.2019 13:00:00 14,1 8,8 - - 21 11 - - SW 1024,3 10 60 0,0
21.02.2019 12:00:00 13,4 9,1 - - 16 9 - - SW 1024,0 10 48 0,0
21.02.2019 11:00:00 12,8 8,8 - - 28 15 - - SW 1023,5 35 18 0,0
21.02.2019 10:00:00 12,1 9,0 - - 29 16 - - SW 1022,9 10 0 0,0
21.02.2019 09:00:00 11,7 9,0 7,4 7,0 29 16 - - SW 1022,6 35 0 0,0
21.02.2019 08:00:00 11,4 9,3 - - 11 6 - - SSW 1021,8 10 0 0,0
21.02.2019 07:00:00 11,1 9,2 - - 15 8 - - SSW 1020,9 10 0 0,0
21.02.2019 06:00:00 10,8 9,0 - - 16 9 - - SSW 1020,3 10 0 0,0
21.02.2019 05:00:00 10,2 8,3 - - 13 7 - - S 1020,0 23 0 0,0
21.02.2019 04:00:00 9,8 7,9 - - 16 9 - - SSE 1019,7 10 0 0,0
21.02.2019 03:00:00 10,1 8,0 - - 21 11 - - S 1019,4 21 0 0,0
21.02.2019 02:00:00 10,3 8,0 - - 18 10 - - S 1019,0 10 0 0,0
21.02.2019 01:00:00 10,2 7,9 - - 15 8 - - S 1019,1 24 0 0,0
21.02.2019 00:00:00 9,7 7,7 - - 13 7 - - SSE 1018,5 20 - 0,0
20.02.2019 23:00:00 9,9 7,7 - - 15 8 - - SSE 1018,2 23 0 0,0
20.02.2019 22:00:00 9,6 7,6 - - 15 8 - - SSE 1017,9 18 0 0,0
20.02.2019 21:00:00 10,2 7,3 - - 15 8 - - S 1018,0 22 0 0,0
20.02.2019 20:00:00 10,5 7,2 - - 16 9 - - S 1017,7 25 0 0,0
20.02.2019 19:00:00 10,7 7,2 - - 18 10 - - S 1017,4 22 0 0,0
20.02.2019 18:00:00 10,6 7,2 - - 18 10 - - SSW 1016,5 30 0 0,0
20.02.2019 17:00:00 10,7 7,2 - - 21 11 - - S 1016,3 30 0 0,0
20.02.2019 16:00:00 10,8 7,4 - - 24 13 - - S 1016,2 30 0 0,0
20.02.2019 15:00:00 10,5 7,5 - - 21 11 - - S 1016,2 20 0 -
20.02.2019 14:00:00 10,4 7,2 - - 28 15 - - SSW 1016,3 20 0 -
20.02.2019 13:00:00 11,1 6,7 - - 24 13 - - SSW 1016,1 10 0 0,0
20.02.2019 12:00:00 10,8 6,2 - - 31 17 - - SW 1016,3 35 0 0,0
20.02.2019 11:00:00 10,6 6,3 - - 24 13 - - SW 1016,0 10 0 0,0
20.02.2019 10:00:00 9,6 6,0 - - 21 11 - - SSW 1015,9 30 0 0,0
20.02.2019 09:00:00 9,2 5,9 7,0 7,0 11 6 - - SSW 1015,4 10 0 0,0
20.02.2019 08:00:00 8,9 5,8 - - 21 11 - - SSW 1014,6 10 0 0,0
20.02.2019 07:00:00 8,9 5,7 - - 24 13 - - SSW 1013,9 10 0 0,0
20.02.2019 06:00:00 8,8 5,6 - - 24 13 - - SSW 1013,7 10 0 0,0
20.02.2019 05:00:00 8,8 5,7 - - 24 13 - - SSW 1013,7 30 0 0,0
20.02.2019 04:00:00 8,5 5,9 - - 26 14 - - SSW 1013,7 10 0 0,0
20.02.2019 03:00:00 8,4 5,8 - - 21 11 - - SSW 1013,9 25 0 0,2
20.02.2019 02:00:00 8,3 5,7 - - 15 8 - - SSW 1014,4 19 0 0,0
20.02.2019 01:00:00 8,0 5,8 - - 24 13 - - SSW 1014,5 18 0 0,4
20.02.2019 00:00:00 7,7 5,1 - - 21 11 - - S 1014,5 16 - 0,8
19.02.2019 23:00:00 7,0 5,5 - - 11 6 - - SSE 1014,8 12 0 0,6
19.02.2019 22:00:00 7,0 5,2 - - 16 9 - - SSE 1015,1 11 0 1,4
19.02.2019 21:00:00 8,1 4,5 - - 21 11 - - S 1015,2 25 0 0,0
19.02.2019 20:00:00 8,4 4,3 - - 22 12 - - S 1014,9 30 0 0,0
19.02.2019 19:00:00 8,7 3,9 - - 21 11 - - SSW 1015,1 30 0 0,0
19.02.2019 18:00:00 8,4 4,1 - - 18 10 - - S 1015,2 30 0 0,0
19.02.2019 17:00:00 8,2 4,4 - - 21 11 - - SSW 1015,4 10 0 0,0
19.02.2019 16:00:00 8,7 4,5 - - 21 11 - - S 1015,7 10 0 0,0
19.02.2019 15:00:00 9,2 3,5 - - 18 10 - - SW 1016,0 10 0 0,0
19.02.2019 14:00:00 9,2 3,7 - - 24 13 - - SSW 1016,4 35 0 0,0
19.02.2019 13:00:00 9,2 3,7 - - 26 14 - - SW 1016,5 10 0 0,0
19.02.2019 12:00:00 9,1 3,9 - - 24 13 - - SW 1016,8 35 6 0,0
19.02.2019 11:00:00 8,6 4,5 - - 22 12 - - SW 1016,8 28 0 0,0
19.02.2019 10:00:00 7,2 4,1 - - 13 7 - - SW 1016,7 35 0 0,0
19.02.2019 09:00:00 5,8 3,2 6,9 6,9 11 6 - - SSW 1016,4 35 6 0,0
19.02.2019 08:00:00 5,0 2,7 - - 4 2 - - SSW 1016,2 10 0 0,0
19.02.2019 07:00:00 5,8 3,3 - - 13 7 - - SSW 1015,7 10 0 0,0
19.02.2019 06:00:00 5,6 3,3 - - 9 5 - - SSW 1015,5 10 0 0,0
19.02.2019 05:00:00 6,1 3,5 - - 18 10 - - SW 1015,2 26 0 0,0
19.02.2019 04:00:00 7,4 4,1 - - 21 11 - - WSW 1014,9 28 0 0,0
19.02.2019 03:00:00 7,7 4,4 - - 21 11 - - WSW 1014,6 10 0 0,0
19.02.2019 02:00:00 7,8 4,4 - - 24 13 - - WSW 1014,4 26 0 0,0
19.02.2019 01:00:00 7,8 4,7 - - 21 11 - - WSW 1014,1 27 0 0,0
19.02.2019 00:00:00 7,1 4,3 - - 11 6 - - SW 1013,7 10 - 0,0
18.02.2019 23:00:00 7,8 4,6 - - 18 10 - - SW 1013,2 25 0 0,0
18.02.2019 22:00:00 7,4 4,4 - - 22 12 - - SW 1012,8 10 0 0,0
18.02.2019 21:00:00 7,2 4,3 - - 15 8 - - SW 1012,8 24 0 0,0
18.02.2019 20:00:00 7,4 4,2 - - 16 9 - - SW 1012,7 16 0 0,0
18.02.2019 19:00:00 7,5 4,1 - - 18 10 - - SW 1012,4 17 0 0,0
18.02.2019 18:00:00 7,7 3,7 - - 24 13 - - SSW 1012,0 23 0 0,0
18.02.2019 17:00:00 8,2 3,2 - - 31 17 - - SW 1011,8 35 0 0,0
18.02.2019 16:00:00 9,1 2,8 - - 31 17 48 26 WSW 1010,9 10 30 0,0
18.02.2019 15:00:00 10,8 2,6 - - 28 15 50 27 SW 1010,6 10 30 0,0
18.02.2019 14:00:00 9,4 2,0 - - 41 22 50 27 SW 1010,4 10 0 0,0
18.02.2019 13:00:00 8,9 3,7 - - 28 15 46 25 WSW 1011,2 10 6 0,2
18.02.2019 12:00:00 9,9 4,4 - - 29 16 - - SW 1011,3 22 18 0,0
18.02.2019 11:00:00 8,9 5,4 - - 28 15 - - SSW 1011,2 10 6 0,0
18.02.2019 10:00:00 8,2 5,1 - - 31 17 - - SSW 1011,1 10 0 0,0
18.02.2019 09:00:00 8,4 4,7 6,9 6,7 22 12 - - S 1011,0 10 6 0,0
18.02.2019 08:00:00 7,8 4,7 - - 18 10 - - SSW 1010,9 10 0 0,0
18.02.2019 07:00:00 7,5 4,8 - - 16 9 - - S 1010,5 10 0 0,0
18.02.2019 06:00:00 7,2 5,3 - - 16 9 - - SSE 1010,5 10 0 0,0
18.02.2019 05:00:00 7,7 5,0 - - 21 11 - - S 1010,6 18 0 0,0
18.02.2019 04:00:00 7,7 5,2 - - 22 12 - - S 1010,8 20 0 0,0
18.02.2019 03:00:00 7,5 5,7 - - 16 9 - - SSE 1011,2 10 0 0,0
18.02.2019 02:00:00 7,4 5,4 - - 15 8 - - SSE 1011,5 19 0 0,0
18.02.2019 01:00:00 7,8 5,5 - - 18 10 - - S 1011,7 19 0 0,0
18.02.2019 00:00:00 8,1 5,4 - - 22 12 - - SSE 1011,4 12 - 0,0
17.02.2019 23:00:00 8,8 4,9 - - 21 11 - - S 1011,3 21 0 0,0
17.02.2019 22:00:00 8,8 5,5 - - 13 7 - - SSE 1011,2 21 0 0,0
17.02.2019 21:00:00 9,5 3,5 - - 22 12 46 25 S 1011,2 22 0 0,0
17.02.2019 20:00:00 8,8 3,3 - - 18 10 - - S 1011,4 24 0 0,0
17.02.2019 19:00:00 9,7 2,9 - - 21 11 - - S 1011,3 26 0 0,0
17.02.2019 18:00:00 10,3 3,1 - - 26 14 - - S 1010,9 10 6 0,0
17.02.2019 17:00:00 11,1 3,5 - - 21 11 - - SSW 1010,3 10 0 0,0
17.02.2019 16:00:00 11,9 5,3 - - 29 16 - - S 1010,2 23 36 0,0
17.02.2019 15:00:00 12,1 5,3 - - 28 15 - - SSW 1010,0 27 42 0,0
17.02.2019 14:00:00 11,6 6,8 - - 29 16 46 25 SSW 1009,9 22 0 0,0
17.02.2019 13:00:00 10,6 7,5 - - 24 13 - - S 1009,9 13 0 0,0
17.02.2019 12:00:00 10,5 6,5 - - 31 17 48 26 S 1010,2 14 6 0,0
17.02.2019 11:00:00 10,1 5,7 - - 34 18 46 25 S 1009,9 14 24 0,0
17.02.2019 10:00:00 9,2 4,9 - - 26 14 - - S 1010,0 15 0 0,0
17.02.2019 09:00:00 8,5 5,4 6,7 6,7 16 9 - - SE 1009,7 12 6 0,0
17.02.2019 08:00:00 7,4 5,3 - - 15 8 - - ESE 1010,2 11 0 0,0
17.02.2019 07:00:00 7,7 5,8 - - 21 11 - - ESE 1010,6 11 0 0,0
17.02.2019 06:00:00 8,0 6,5 - - 15 8 - - SE 1011,3 11 0 0,0
17.02.2019 05:00:00 8,3 7,1 - - 13 7 - - ESE 1012,1 10 0 0,0
17.02.2019 04:00:00 9,1 7,3 - - 18 10 - - SSE 1012,8 12 0 0,0
17.02.2019 03:00:00 9,5 7,3 - - 21 11 - - SSE 1013,6 15 0 0,0
17.02.2019 02:00:00 9,6 7,1 - - 24 13 - - SSE 1014,7 18 0 0,0
17.02.2019 01:00:00 9,7 7,2 - - 24 13 - - S 1015,0 20 0 0,0
17.02.2019 00:00:00 9,5 7,1 - - 22 12 - - S 1015,9 18 - 0,0
16.02.2019 23:00:00 10,2 7,7 - - 24 13 - - S 1016,5 17 0 0,0
16.02.2019 22:00:00 11,2 8,8 - - 18 10 - - S 1016,8 17 0 0,0
16.02.2019 21:00:00 11,5 9,4 - - 21 11 - - S 1017,0 17 0 0,0
16.02.2019 20:00:00 11,7 9,5 - - 21 11 - - S 1017,3 19 0 0,0
16.02.2019 19:00:00 11,7 9,3 - - 18 10 - - S 1017,5 10 0 0,0
16.02.2019 18:00:00 11,6 8,9 - - 16 9 - - S 1017,3 24 0 0,0
16.02.2019 17:00:00 11,6 8,6 - - 16 9 - - SSE 1017,4 22 0 0,0
16.02.2019 16:00:00 11,9 7,9 - - 22 12 - - S 1017,6 25 0 0,0
16.02.2019 15:00:00 12,1 7,0 - - 16 9 - - SSW 1018,4 30 0 0,0
16.02.2019 14:00:00 12,6 6,1 - - 22 12 - - SSW 1019,0 24 30 0,0
16.02.2019 13:00:00 13,0 6,5 - - 24 13 - - S 1019,7 28 54 0,0
16.02.2019 12:00:00 11,6 5,7 - - 24 13 - - SSW 1020,0 10 36 0,0
16.02.2019 11:00:00 11,3 6,2 - - 26 14 - - SSW 1020,0 28 42 0,0
16.02.2019 10:00:00 10,3 6,1 - - 22 12 - - S 1019,7 28 54 0,0
16.02.2019 09:00:00 9,3 6,1 6,2 6,7 16 9 - - S 1020,0 10 6 0,0
16.02.2019 08:00:00 9,1 5,4 - - 16 9 - - S 1019,9 22 0 0,0
16.02.2019 07:00:00 9,0 5,4 - - 13 7 - - S 1019,4 23 0 0,0
16.02.2019 06:00:00 8,6 5,1 - - 8 4 - - SSE 1019,0 24 0 0,0
16.02.2019 05:00:00 9,0 5,6 - - 18 10 - - SW 1018,8 24 0 0,0
16.02.2019 04:00:00 10,8 8,0 - - 24 13 - - WSW 1018,4 30 0 0,0
16.02.2019 03:00:00 9,3 7,3 - - 16 9 - - S 1018,4 12 0 0,0
16.02.2019 02:00:00 9,2 6,8 - - 21 11 - - S 1018,7 12 0 0,0
16.02.2019 01:00:00 8,5 6,1 - - 18 10 - - SSE 1019,3 10 0 0,0

tt = temperature
td = dewpoint
tt -20cm = temperature -20cm
tt -100cm = temperature -100cm
ff = wind speed
fx = gusts
dd = wind direction
ppp = reduced air pressure
vv = visibility
sd = sunshine duration
rr = precipitation

Next stations